Location: Winthrop
(48.4780°N, 120.1850°W)
Time: 22:32:56
(UTC-07:00)

S-56A Canister/Altair - Pass Details

Date: 04 June 2023
Orbit: 640 x 2489 km, 38.9° (Epoch: 29 September)

Event Time Altitude Azimuth Distance (km) Brightness Sun altitude
Rises 23:38:06 0° 255° (WSW) 5,693 12.0 -16.7°
Reaches altitude 10° 23:41:39 10° 252° (WSW) 4,853 11.6 -16.9°
Maximum altitude 23:55:35 58° 179° (S) 2,787 10.0 -17.6°
Drops below altitude 10° 00:09:34 10° 105° (ESE) 4,869 11.3 -18.1°
Sets 00:13:07 0° 102° (ESE) 5,713 11.7 -18.2°
